FW9069 Weather Reports


Display with metric or nautical units.
time (UTC)temp
F
wind
direction
speed
MPH
gust
MPH
rain 1hr
in
rain 24hr
in
rain mn
in
humidity
%
barometer
mb
20260905013322 60 109 3.0 9.0 0.00 0.34 0.24 85 1014.9
20260905011850 60 80 3.0 9.0 0.00 0.34 0.24 84 1014.7
20260905010321 60 116 2.0 10.0 0.00 0.34 0.24 83 1014.6
20260905004849 61 80 7.0 12.0 0.00 0.34 0.24 82 1014.6
20260905003337 62 72 3.0 10.0 0.00 0.34 0.24 82 1014.4
20260905001849 63 127 6.0 13.0 0.00 0.34 0.24 83 1014.3
20260905000340 62 119 3.0 9.0 0.00 0.34 0.24 86 1014.3
20260904234829 63 80 4.0 11.0 0.00 0.34 0.24 84 1014.2
20260904233357 63 98 7.0 13.0 0.00 0.36 0.24 86 1014.1
20260904231827 63 128 3.0 7.0 0.00 0.36 0.24 93 1013.9
20260904230341 61 105 2.0 8.0 0.00 0.36 0.24 93 1013.9
20260904224830 60 63 3.0 5.0 0.00 0.36 0.24 96 1014.0
20260904223322 59 36 1.0 4.0 0.01 0.38 0.24 95 1013.9
20260904221833 59 46 2.0 4.0 0.01 0.38 0.24 95 1013.9
20260904220344 59 80 3.0 6.0 0.02 0.38 0.24 97 1013.9
20260904214855 58 85 1.0 3.0 0.13 0.38 0.24 96 1013.9
20260904213348 57 90 2.0 4.0 0.12 0.45 0.23 95 1013.8
20260904211819 57 128 4.0 10.0 0.12 0.45 0.23 95 1013.8
20260904210330 57 189 1.0 11.0 0.11 0.44 0.22 93 1013.8
20260904204820 58 221 5.0 8.0 0.00 0.33 0.11 91 1013.5
20260904203332 59 172 7.0 11.0 0.00 0.40 0.11 89 1013.5
20260904201822 61 101 3.0 5.0 0.00 0.40 0.11 88 1013.2
20260904200329 60 347 2.0 7.0 0.00 0.40 0.11 92 1013.3
20260904194838 58 109 4.0 10.0 0.00 0.40 0.11 92 1013.3
20260904193349 58 15 3.0 10.0 0.00 0.40 0.11 93 1013.5
20260904191821 59 9 3.0 8.0 0.00 0.40 0.11 95 1013.4
20260904190333 58 11 5.0 9.0 0.00 0.40 0.11 96 1013.5
20260904184826 58 36 4.0 8.0 0.00 0.40 0.11 98 1013.5
20260904183334 57 341 2.0 6.0 0.00 0.41 0.11 97 1013.4
20260904181824 57 354 2.0 6.0 0.00 0.41 0.11 98 1013.3
20260904180354 57 330 2.0 4.0 0.00 0.41 0.11 98 1013.2
20260904174844 56 328 3.0 5.0 0.00 0.41 0.11 98 1013.1
20260904173335 56 329 3.0 4.0 0.00 0.51 0.11 98 1013.0
20260904171822 55 329 2.0 3.0 0.00 0.51 0.11 98 1012.9
20260904170332 55 332 2.0 5.0 0.00 0.51 0.11 98 1012.8
20260904164838 54 337 2.0 4.0 0.00 0.51 0.11 98 1012.7
20260904163325 55 342 0.0 3.0 0.00 0.51 0.11 98 1012.6
20260904161845 54 342 1.0 4.0 0.00 0.51 0.11 98 1012.6
20260904160354 54 345 2.0 4.0 0.00 0.51 0.11 98 1012.7
20260904154825 54 334 3.0 5.0 0.00 0.51 0.11 98 1012.5
20260904153333 53 337 1.0 4.0 0.01 0.51 0.11 98 1012.2
20260904151823 53 337 3.0 7.0 0.02 0.51 0.11 98 1012.3
20260904150329 53 333 2.0 4.0 0.03 0.51 0.11 98 1012.3
20260904144822 53 317 1.0 3.0 0.03 0.51 0.11 98 1012.2
20260904143331 53 318 1.0 4.0 0.02 0.52 0.10 98 1012.1
20260904141822 52 351 3.0 6.0 0.01 0.51 0.09 98 1011.9
20260904140330 52 332 1.0 3.0 0.00 0.50 0.08 98 1011.7
20260904134838 52 331 2.0 4.0 0.00 0.50 0.08 98 1011.4
20260904133349 52 321 1.0 3.0 0.01 0.56 0.08 97 1011.2
20260904131819 53 321 1.0 3.0 0.01 0.56 0.08 97 1011.0
20260904130327 52 321 1.0 4.0 0.01 0.56 0.08 97 1010.9
20260904124821 53 321 2.0 7.0 0.01 0.56 0.08 97 1010.9
20260904123332 53 344 1.0 2.0 0.00 0.55 0.07 97 1010.9
20260904121824 53 344 1.0 3.0 0.00 0.55 0.07 97 1010.9
20260904120354 52 344 1.0 3.0 0.00 0.55 0.07 97 1010.8
20260904114821 52 344 1.0 2.0 0.00 0.55 0.07 97 1010.7
20260904113333 53 344 0.0 2.0 0.00 0.55 0.07 97 1010.5
20260904111826 53 344 1.0 3.0 0.00 0.55 0.07 97 1010.4
20260904110335 53 344 0.0 1.0 0.00 0.55 0.07 97 1010.4
20260904104843 53 344 2.0 3.0 0.00 0.55 0.07 97 1010.3
20260904101820 53 349 2.0 3.0 0.00 0.55 0.07 97 1010.3
20260904100331 52 348 2.0 4.0 0.00 0.55 0.07 97 1010.2
20260904094822 53 17 4.0 5.0 0.01 0.55 0.07 97 1010.2
20260904093332 53 16 3.0 5.0 0.02 0.55 0.07 97 1010.3
20260904091824 53 15 4.0 8.0 0.04 0.55 0.07 97 1010.3
20260904090332 53 36 3.0 4.0 0.06 0.55 0.07 97 1010.4
20260904084822 53 31 2.0 5.0 0.06 0.54 0.06 97 1010.4
20260904083334 53 34 3.0 4.0 0.05 0.53 0.05 97 1010.3
20260904081823 53 90 2.0 3.0 0.03 0.51 0.03 97 1010.3
20260904080333 53 122 4.0 7.0 0.01 0.49 0.01 97 1010.3
20260904074827 53 127 4.0 6.0 0.00 0.48 0.00 97 1010.2
20260904073335 53 122 1.0 3.0 0.00 0.48 0.48 97 1010.2
20260904071827 53 125 2.0 5.0 0.00 0.48 0.48 97 1010.3
20260904070339 53 134 3.0 5.0 0.00 0.48 0.48 97 1010.1
20260904064824 53 117 1.0 3.0 0.00 0.48 0.48 97 1010.1
20260904063338 53 61 0.0 2.0 0.00 0.49 0.48 96 1010.1
20260904061829 53 61 1.0 3.0 0.00 0.49 0.48 96 1010.2
20260904060321 53 80 1.0 3.0 0.00 0.49 0.48 96 1010.2
20260904054834 53 116 1.0 3.0 0.00 0.49 0.48 96 1010.1
20260904053343 53 119 1.0 3.0 0.00 0.54 0.48 96 1010.2
20260904051855 53 80 0.0 6.0 0.00 0.54 0.48 96 1010.2
20260904050325 53 94 4.0 6.0 0.00 0.54 0.48 96 1010.3
20260904044836 53 121 3.0 8.0 0.00 0.54 0.48 96 1010.2
20260904043322 53 140 4.0 9.0 0.01 0.54 0.48 96 1010.3
20260904041834 53 102 4.0 5.0 0.01 0.54 0.48 96 1010.2
20260904040325 53 96 3.0 6.0 0.03 0.54 0.48 96 1010.2
20260904034837 53 115 3.0 8.0 0.03 0.54 0.48 96 1010.1
20260904033328 53 131 3.0 5.0 0.02 0.53 0.47 96 1010.0
20260904031819 54 137 4.0 6.0 0.03 0.53 0.47 96 1009.9
20260904030332 54 136 4.0 6.0 0.02 0.51 0.45 96 1010.0
20260904024821 54 102 3.0 12.0 0.04 0.51 0.45 96 1010.2
20260904023332 54 123 6.0 9.0 0.05 0.51 0.45 96 1010.0
20260904021844 54 141 6.0 10.0 0.05 0.50 0.44 95 1009.9
20260904020335 54 115 5.0 9.0 0.05 0.49 0.43 95 1010.0
20260904014823 54 131 4.0 8.0 0.03 0.47 0.41 94 1009.9